User: anonymous   Login
Location: Caltech
(34.1382°N, 118.1253°W)
Time: 20:49:15
(UTC-08:00)
Language:

Gbstr 26 Del rocket - Orbit

View from above orbital plane
View from above orbital plane
View from above satellite
View from above satellite

Ground track
Ground track

The orbit data is extracted from the following two-line orbital elements,

1 25876U 99041E   14325.44813005  .00003744  00000-0  68562-3 0  5232
2 25876 051.7662 057.7392 0539021 174.0586 270.0039 14.02588517782785
Epoch (UTC): 21 November 2014 10:45:18
Eccentricity: 0.0539021
inclination: 51.7662°
perigee height: 493 km
apogee height: 1276 km
right ascension of ascending node: 57.7392°
argument of perigee: 174.0586°
revolutions per day: 14.02588517
mean anomaly at epoch: 270.0039°
orbit number at epoch: 78278

The dashed part of the orbit path shows where the satellite is in the earth's shadow,  

DLR